Latest Coastal Weather Observations for Truscott

IDW60701

Issued at 7:52 pm WST Saturday 28 May 2016 (issued every 10 minutes, with the page automatically refreshed every 10 minutes)

About coastal observations | Map of coastal stations | Coastal observations for WA | Marine services | Other Formats
Station Details ID: 001020 Name: TRUSCOTT Lat: -14.09 Lon: 126.39 Height: 51.0 m
Data from the previous 72 hours. | See also: Recent months at Truscott
Date/Time
WST
Temp

°C
Wind Pressure Rain
since 9am
mm
Weather Cloud Vis
km
Sea
Height
m
Swell
Dir
 
Speed
knots
Gust
knots
hPa Trend Height
m
Period
s
Dir
28/07:30pm 28.0 W 4 - 1011.0 - 0.0 - - 10 - - - -
28/07:00pm 28.4 W 3 - 1011.1 - 0.0 - - 8 - - - -
28/06:30pm 29.0 WNW 4 - 1011.0 - 0.0 - - 10 - - - -
28/06:00pm 29.4 WNW 5 - 1010.5 - 0.0 - - 10 - - - -
28/05:30pm 30.0 WNW 4 - 1010.0 - 0.0 - - 10 - - - -
28/05:00pm 30.8 WNW 4 - 1010.1 - 0.0 - - 10 - - - -
28/04:30pm 32.0 W 5 - 1010.0 - 0.0 - - 10 - - - -
28/04:00pm 32.5 WNW 6 - 1009.7 - 0.0 - - 10 - - - -
28/03:30pm 33.0 W 7 - 1009.0 - 0.0 - - 10 - - - -
28/03:00pm 33.0 W 7 - 1009.4 - 0.0 - - 10 - - - -
28/02:30pm 33.0 WNW 7 - 1009.0 - 0.0 - - 10 - - - -
28/02:00pm 33.7 WNW 8 - 1009.7 - 0.0 - - 10 - - - -
28/01:30pm 33.0 WNW 9 - 1010.0 - 0.0 - - 10 - - - -
28/01:00pm 34.3 WNW 8 - 1010.4 - 0.0 - - 10 - - - -
28/12:30pm 34.0 W 9 - 1011.0 - 0.0 - - 10 - - - -
28/12:00pm 33.8 WNW 8 - 1011.4 - 0.0 - - 10 - - - -
28/11:30am 33.0 W 7 - 1012.0 - 0.0 - - 10 - - - -
28/11:00am 33.5 W 7 - 1012.1 - 0.0 - - 10 - - - -
28/10:30am 33.0 W 8 - 1012.0 - 0.0 - - 10 - - - -
28/10:00am 32.9 SSW 7 - 1013.0 - 0.0 - - 10 - - - -
28/09:30am 32.0 SSW 6 - 1013.0 - 0.0 - - 10 - - - -
28/09:00am 31.2 SW 6 - 1013.7 - 0.0 - - 10 - - - -
28/08:30am 30.0 WSW 5 - 1014.0 - 0.0 - - 10 - - - -
28/08:00am 29.4 SW 5 - 1013.6 - 0.0 - - 10 - - - -
28/07:30am 28.0 SW 5 - 1013.0 - 0.0 - - 10 - - - -
28/07:00am 27.4 SW 4 - 1013.0 - 0.0 - - 10 - - - -
28/06:30am 26.0 SSW 4 - 1013.0 - 0.0 - - 10 - - - -
28/06:00am 25.5 SSW 3 - 1012.7 - 0.0 - - 10 - - - -
28/05:30am 26.0 SSW 4 - 1012.0 - 0.0 - - 10 - - - -
28/05:00am 26.2 SW 4 - 1012.1 - 0.0 - Partly cloudy 10 - - - -
28/04:30am 26.0 SW 4 - 1012.0 - 0.0 - Partly cloudy 10 - - - -
28/04:00am 26.3 SW 4 - 1012.1 - 0.0 - - 10 - - - -
28/03:30am 26.0 SW 4 - 1012.0 - 0.0 - Partly cloudy 10 - - - -
28/03:00am 26.6 WSW 4 - 1012.0 - 0.0 - Mostly clear 10 - - - -
28/02:30am 27.0 WSW 5 - 1012.0 - 0.0 - - 10 - - - -
28/02:00am 27.0 W 5 - 1012.0 - 0.0 - - 10 - - - -
28/01:30am 27.0 W 5 - 1012.0 - 0.0 - - 10 - - - -
28/01:00am 27.1 W 5 - 1012.5 - 0.0 - - 10 - - - -
28/12:30am 27.0 W 4 - 1013.0 - 0.0 - Partly cloudy 10 - - - -
28/12:00am 27.1 W 4 - 1012.6 - 0.0 - - 10 - - - -
 
Date/Time
WST
Temp

°C
Wind Pressure Rain
since 9am
mm
Weather Cloud Vis
km
Sea
Height
m
Swell
Dir
 
Speed
knots
Gust
knots
hPa Trend Height
m
Period
s
Dir
27/11:30pm 27.0 WSW 5 - 1013.0 - 0.0 - - 10 - - - -
27/11:00pm 27.4 W 4 - 1012.9 - 0.0 - Partly cloudy 10 - - - -
27/10:30pm 28.0 W 5 - 1013.0 - 0.0 - Partly cloudy 10 - - - -
27/10:00pm 27.0 W 3 - 1013.0 - 0.0 - Partly cloudy 10 - - - -
27/09:30pm 27.0 W 4 - 1013.0 - 0.0 - Partly cloudy 10 - - - -
27/09:00pm 27.6 W 4 - 1013.2 - 0.0 - Mostly clear 7 - - - -
27/08:30pm 28.0 W 3 - 1013.0 - 0.0 - - 10 - - - -
27/08:00pm 27.9 W 3 - 1012.7 - 0.0 - Partly cloudy 10 - - - -
27/07:30pm 28.0 WNW 3 - 1012.0 - 0.0 - - 10 - - - -
27/07:00pm 28.3 WNW 4 - 1012.0 - 0.0 - - 10 - - - -
27/06:30pm 28.0 NW 4 - 1011.0 - 0.0 - - 10 - - - -
27/06:00pm 28.9 NNW 4 - 1011.3 - 0.0 - Partly cloudy 10 - - - -
27/05:30pm 29.0 NW 4 - 1011.0 - 0.0 - Partly cloudy 10 - - - -
27/05:00pm 29.9 NW 5 - 1010.7 - 0.0 - - 8 - - - -
27/04:30pm 31.0 NW 6 - 1010.0 - 0.0 - - 10 - - - -
27/04:00pm 31.4 NW 6 - 1010.4 - 0.0 - - 7 - - - -
27/03:30pm 31.0 NNW 7 - 1010.0 - 0.0 - - 10 - - - -
27/03:00pm 32.1 N 8 - 1010.2 - 0.0 - - 10 - - - -
27/02:30pm 33.0 N 8 - 1010.0 - 0.0 - - 10 - - - -
27/02:00pm 33.0 NW 8 - 1010.5 - 0.0 - - 10 - - - -
27/01:30pm 34.0 NNW 7 - 1010.0 - 0.0 - - 10 - - - -
27/01:00pm 34.5 NNW 5 - 1011.0 - 0.0 - Partly cloudy 10 - - - -
27/12:30pm 34.0 WNW 6 - 1011.0 - 0.0 - - 10 - - - -
27/12:00pm 33.9 NW 4 - 1011.7 - 0.0 - - 7 - - - -
27/11:30am 34.0 SW 5 - 1012.0 - 0.0 - - 10 - - - -
27/11:00am 33.4 SW 7 - 1012.8 - 0.0 - - 10 - - - -
27/10:30am 33.0 SSW 8 - 1013.0 - 0.0 - - 10 - - - -
27/10:00am 32.2 WSW 8 - 1013.8 - 0.0 - - 10 - - - -
27/09:30am 31.0 SW 8 - 1014.0 - 0.0 - - 10 - - - -
27/09:00am 30.6 SW 9 - 1014.5 - - - - 10 - - - -
27/08:30am 30.0 SW 8 - 1014.0 - - - - 10 - - - -
27/08:00am 29.0 SSW 7 - 1014.5 - - - - 10 - - - -
27/07:30am 28.0 SW 6 - 1014.0 - - - Partly cloudy 10 - - - -
27/07:00am 26.6 SW 6 - 1014.1 - - - Partly cloudy 10 - - - -
27/06:30am 26.0 SW 5 - 1014.0 - - - Partly cloudy 10 - - - -
27/06:00am 25.3 SW 5 - 1013.4 - - - - 10 - - - -
27/05:30am 26.0 WSW 4 - 1013.0 - - - - 10 - - - -
27/05:00am 23.4 S 1 - 1012.9 - - - - 7 - - - -
27/04:30am 24.0 S 2 - 1012.0 - - - - 10 - - - -
27/04:00am 23.8 S 3 - 1012.4 - - - - 8 - - - -
27/03:30am 25.0 SSW 4 - 1012.0 - - - - 7 - - - -
27/03:00am 25.9 SSW 5 - 1012.4 - 0.0 - - 10 - - - -
27/02:30am 26.0 SSW 5 - 1012.0 - - - - 10 - - - -
27/02:00am 26.0 SW 5 - 1012.9 - - - - 10 - - - -
27/01:30am 26.0 SSW 5 - 1013.0 - - - - 10 - - - -
27/01:00am 26.3 SW 5 - 1013.2 - - - - 10 - - - -
27/12:30am 27.0 SW 5 - 1013.0 - - - - 10 - - - -
27/12:00am 26.4 WSW 4 - 1013.3 - - - - 10 - - - -
 
Date/Time
WST
Temp

°C
Wind Pressure Rain
since 9am
mm
Weather Cloud Vis
km
Sea
Height
m
Swell
Dir
 
Speed
knots
Gust
knots
hPa Trend Height
m
Period
s
Dir
26/11:30pm 25.0 CALM 0 - 1013.0 - - - - 10 - - - -
26/11:00pm 25.4 CALM 0 - 1013.2 - - - - 10 - - - -
26/10:30pm 26.0 CALM 0 - 1013.0 - - - - 10 - - - -
26/10:00pm 26.8 W 3 - 1013.4 - - - - 10 - - - -
26/09:30pm 27.0 WSW 3 - 1013.0 - - - - 10 - - - -
26/09:00pm 27.1 W 2 - 1013.4 - - - - 10 - - - -
26/08:42pm 27.0 W 5 - 1013.0 - - - - 10 - - - -
26/08:32pm 27.0 W 3 - 1013.0 - - - - 5 - - - -
26/08:30pm 27.0 W 3 - 1013.0 - - - - 6 - - - -
26/08:00pm 27.1 W 3 - 1013.4 - - - - 10 - - - -
26/07:30pm 27.0 WNW 3 - 1013.0 - - - - 10 - - - -
26/07:00pm 27.2 CALM 0 - 1012.9 - - - - 10 - - - -
26/06:30pm 28.0 NW 3 - 1012.0 - - - - 10 - - - -
26/06:00pm 28.6 NNW 1 - 1012.2 - - - - - - - - -
26/05:30pm 29.0 N 3 - 1012.0 - 0.0 - - 10 - - - -
26/05:00pm 29.7 NW 4 - 1011.7 - 0.0 - - 10 - - - -
26/04:30pm 31.0 N 6 - 1011.0 - 0.0 - - 10 - - - -
26/04:00pm 31.2 NNW 7 - 1011.0 - 0.0 - - 10 - - - -
26/03:30pm 32.0 NNW 7 - 1011.0 - 0.0 - - 10 - - - -
26/03:00pm 32.1 NNW 7 - 1010.7 - 0.0 - - 10 - - - -
26/02:30pm 33.0 NNW 7 - 1011.0 - 0.0 - - 10 - - - -
26/02:00pm 32.9 NNW 7 - 1010.9 - 0.0 - - 10 - - - -
26/01:30pm 33.0 NNW 8 - 1011.0 - 0.0 - - 10 - - - -
26/01:00pm 33.9 N 5 - 1011.4 - 0.0 - - 10 - - - -
26/12:30pm 34.0 E 9 - 1012.0 - 0.0 - - 10 - - - -
26/12:00pm 33.9 ENE 5 - 1012.3 - 0.0 - - 10 - - - -
26/11:30am 34.0 ESE 2 - 1013.0 - 0.0 - - 10 - - - -
26/11:00am 33.4 ESE 2 - 1013.3 - 0.0 - - 10 - - - -
26/10:30am 32.0 W 5 - 1014.0 - 0.0 - - 10 - - - -
26/10:00am 31.8 SSW 5 - 1014.1 - 0.0 - - 10 - - - -
26/09:30am 31.0 W 5 - 1014.0 - 0.0 - - 10 - - - -
26/09:00am 30.6 SW 5 - 1014.4 - 0.0 - - 10 - - - -
26/08:30am 30.0 SW 4 - 1014.0 - 0.0 - - 10 - - - -
26/08:00am 28.9 SSW 5 - 1014.3 - 0.0 - - 10 - - - -
26/07:30am 28.0 SSW 4 - 1014.0 - 0.0 - - 10 - - - -
26/07:00am 26.5 SSW 1 - 1013.9 - 0.0 - - 10 - - - -
26/06:30am 25.0 SSW 1 - 1013.0 - 0.0 - - 10 - - - -
26/06:00am 23.3 CALM 0 - 1013.1 - 0.0 - - 10 - - - -
26/05:30am 24.0 S 3 - 1013.0 - 0.0 - - 10 - - - -
26/05:00am 23.8 S 3 - 1012.6 - 0.0 - - 10 - - - -
26/04:30am 24.0 S 3 - 1012.0 - 0.0 - - 10 - - - -
26/04:00am 23.9 S 2 - 1012.3 - 0.0 - - 10 - - - -
26/03:30am 24.0 CALM 0 - 1012.0 - 0.0 - - 10 - - - -
26/03:00am 23.9 CALM 0 - 1012.3 - 0.0 - - 7 - - - -
26/02:30am 24.0 CALM 0 - 1012.0 - 0.0 - - 10 - - - -
26/02:00am 24.3 CALM 0 - 1012.2 - 0.0 - - 10 - - - -
26/01:30am 24.0 CALM 0 - 1012.0 - 0.0 - - 10 - - - -
26/01:00am 24.7 CALM 0 - 1012.6 - 0.0 - - 10 - - - -
26/12:30am 24.0 CALM 0 - 1012.0 - 0.0 - - 10 - - - -
26/12:00am 24.3 E 1 - 1012.6 - 0.0 - - 10 - - - -
 
Date/Time
WST
Temp

°C
Wind Pressure Rain
since 9am
mm
Weather Cloud Vis
km
Sea
Height
m
Swell
Dir
 
Speed
knots
Gust
knots
hPa Trend Height
m
Period
s
Dir
25/11:30pm 25.0 CALM 0 - 1013.0 - 0.0 - - 9 - - - -
25/11:00pm 24.8 CALM 0 - 1012.9 - 0.0 - - 10 - - - -
25/10:30pm 25.0 CALM 0 - 1013.0 - 0.0 - - 10 - - - -
25/10:00pm 25.1 CALM 0 - 1013.0 - 0.0 - - 10 - - - -
25/09:30pm 25.0 CALM 0 - 1013.0 - 0.0 - - 10 - - - -
25/09:00pm 25.4 CALM 0 - 1012.9 - 0.0 - - 10 - - - -
25/08:30pm 26.0 ENE 1 - 1013.0 - 0.0 - - 10 - - - -
25/08:00pm 25.9 CALM 0 - 1012.8 - 0.0 - - 10 - - - -

Other Formats:

Comma delimited format used in spreadsheet applications
http://www.bom.gov.au/fwo/IDW60701/IDW60701.95101.axf

JavaScript Object Notation format (JSON) in row-major order
http://www.bom.gov.au/fwo/IDW60701/IDW60701.95101.json